[[{"header":{"parameterUnit":"m.s-1","parameterCategory":1,"la1":30.2991,"la2":30.254,"lo1":-89.0895,"lo2":-89.0444,"dy":0.0017,"dx":0.0017,"nx":28,"ny":28,"refTime":"2023-04-06T21:00:00:Z","depth":0,"parameterNumber":2,"parameterNumberName":"U-component_of_WINDS"},"data":[0,0,0,0,0,0,0,0,0,0,0,0,0,0,0,0,0,0,0,0,0,0,0,0,0,0,0,0,0,0,0,0,0,0,0,0,0,0,0,0,0,0,0,0,0,0,0,0,0,0,0,0,0,0,0,0,0,0,3.5685,3.5685,0,3.5712,3.5713,3.5713,3.5567,3.5563,3.5559,3.5555,3.5577,3.5581,3.5585,0,0,0,0,0,0,0,0,0,0,0,0,0,3.5501,3.5505,3.5684,3.5685,3.5685,3.5712,3.5713,3.5713,3.5568,3.5563,3.5557,3.5553,3.5575,3.558,3.5586,0,0,0,0,0,0,0,0,0,0,0,0,0,3.556,3.5507,3.5684,3.5616,3.561,3.5712,3.5713,3.5713,3.5569,3.5562,3.5556,3.555,3.5573,3.558,3.5587,3.5753,0,0,3.5607,3.561,0,0,0,0,0,0,0,0,3.5557,3.5567,3.5626,3.5621,3.5615,3.563,3.5656,3.5726,3.557,3.5584,3.5554,3.5547,3.5599,3.5603,3.5622,3.5754,3.5755,3.5608,3.5612,3.5615,3.5617,0,0,0,0,0,0,0,3.5553,3.5565,3.5695,3.5627,3.562,3.5583,3.5584,3.5669,3.5626,3.5583,3.5572,3.5578,3.5595,3.5616,3.5621,3.5756,3.5608,3.5613,3.5618,3.562,3.6029,3.6036,0,0,0,0,0,0,3.5559,3.5562,3.5694,3.5696,3.557,3.5591,3.5593,3.5631,3.5625,3.5618,3.5583,3.5571,3.5607,3.5614,3.5622,3.5818,3.5615,3.5621,3.5625,3.6022,3.6031,3.6038,0,0,0,0,0,0,3.5555,3.5572,3.5693,3.5627,3.5639,3.5601,3.5645,3.5635,3.5656,3.5625,3.5616,3.5613,3.5603,3.5612,3.5723,3.5817,3.5624,3.563,3.6014,3.6025,3.6034,3.6212,0,0,0,0,0,0,3.5551,3.5572,3.5635,3.5629,3.5643,3.5796,3.5651,3.564,3.5669,3.5653,3.5651,3.5644,3.5599,3.5714,3.573,3.5822,3.5635,3.6006,3.6019,3.6031,3.6197,3.6227,3.6252,0,0,0,0,0,3.5545,3.5682,3.5639,3.5656,3.5722,3.5801,3.5809,3.5755,3.5677,3.574,3.5721,3.5644,3.5804,3.5726,3.5743,3.5839,3.5999,3.6015,3.603,3.6185,3.6221,3.6251,0,0,0,0,0,0,3.5696,3.568,3.5632,3.5772,3.579,3.5776,3.5854,3.5795,3.5833,3.5816,3.5746,3.5747,3.587,3.5865,3.5778,3.6002,3.5888,3.5907,3.6,3.6034,3.6061,3.6059,3.5641,0,0,0,0,0,3.5747,3.5814,3.5795,3.592,3.5932,3.5893,3.5924,3.5882,3.5897,3.5902,3.5891,3.5907,3.596,3.5997,3.6044,3.6196,3.6194,3.6271,3.6299,3.6321,3.6339,3.6421,3.6455,3.6088,3.6088,3.6088,0,0,3.585,3.5849,3.5895,3.5951,3.5959,3.603,3.5899,3.5978,3.6029,3.5913,3.6018,3.6011,3.6024,3.6157,3.6215,3.6157,3.644,3.6341,3.6359,3.6364,3.644,3.6475,3.6506,3.6099,3.6097,3.6095,0,0,3.6074,3.6081,3.6187,3.62,3.6216,3.619,3.6216,3.6213,3.6205,3.631,3.6225,3.6284,3.6378,3.6391,3.641,3.6646,3.6577,3.6663,3.6805,3.6886,3.6915,3.694,3.7025,3.7056,3.668,3.6681,3.6681,0,3.6199,3.6304,3.6248,3.6335,3.6362,3.6265,3.6372,3.6386,3.6416,3.6436,3.6372,3.649,3.6491,3.6627,3.6685,3.6704,3.6731,3.6662,3.6916,3.6941,3.6963,3.7043,3.7075,3.6691,3.669,3.6689,3.6688,0,3.6458,3.6533,3.6616,3.6652,3.6689,3.6785,3.6743,3.6787,3.6743,3.6723,3.6832,3.6831,3.6878,3.6907,3.6863,3.7038,3.7002,3.6928,3.6812,3.701,3.7084,3.7114,3.6706,3.6702,3.6699,3.6697,0,0,3.6775,3.6783,3.6815,3.6831,3.6845,3.69,3.6992,3.7042,3.7081,3.7106,3.7181,3.7266,3.7199,3.7221,3.7177,3.7249,3.7437,3.7166,3.7165,3.7217,3.7631,3.7686,3.7723,3.7392,3.7398,3.7402,3.763,0,3.6995,3.7156,3.7111,3.7271,3.7339,3.725,3.7331,3.7347,3.7333,3.7387,3.7369,3.7431,3.7337,3.735,3.7417,3.74,3.7519,3.7383,3.7461,3.7464,3.746,3.7761,3.7819,3.8033,3.7658,3.7663,3.7667,0,3.7273,3.7314,3.7482,3.7488,3.7515,3.7588,3.7631,3.7685,3.7703,3.7687,3.7715,3.7658,3.7748,3.7634,3.7758,3.7667,3.7696,3.7693,3.77,3.7704,3.7577,3.7773,3.81,3.8133,3.7712,3.7708,3.7705,0,3.7488,3.7585,3.7699,3.7716,3.7725,3.7779,3.7785,3.7796,3.783,3.7867,3.7889,3.7935,3.796,3.7997,3.7955,3.7875,3.8086,3.7967,3.8074,3.8076,3.8121,3.8119,3.8458,3.8142,3.8141,3.8141,3.814,0,3.7738,3.7845,3.7797,3.7867,3.7984,3.7931,3.8048,3.8043,3.8056,3.8122,3.8047,3.8111,3.8051,3.811,3.8077,3.8185,3.8197,3.8186,3.8176,3.8193,3.8195,3.821,3.8194,3.8149,3.8147,3.8145,3.8144,0,3.7997,3.7969,3.8088,3.8089,3.8092,3.8179,3.8178,3.8243,3.8225,3.8311,3.8327,3.8298,3.8364,3.8326,3.8391,3.8369,3.8511,3.848,3.8506,3.8497,3.8607,3.8597,3.8967,3.9013,3.8669,3.8672,3.8675,0,3.8158,3.8239,3.8251,3.8293,3.8305,3.8371,3.8407,3.8359,3.8398,3.8427,3.8489,3.8549,3.8593,3.8702,3.8685,3.8736,3.8706,3.8832,3.8713,3.8728,3.8708,3.8704,3.8712,3.8856,3.886,3.8863,3.8866,0,3.8448,3.8431,3.8487,3.854,3.8585,3.8623,3.8654,3.8692,3.8644,3.8693,3.8761,3.8797,3.8867,3.8927,3.8971,3.8975,3.8913,3.8905,3.8932,3.8949,3.8961,3.8957,3.8571,3.8895,3.8892,3.889,3.8889,3.8887,3.8662,3.8731,3.8752,3.8817,3.8837,3.8869,3.8931,3.8923,3.898,3.9035,3.9003,3.9084,3.9101,3.9154,3.9167,3.9228,3.9177,3.9217,3.9227,3.9237,3.9253,3.8953,3.9236,3.9235,3.9234,3.9234,3.9233,0,3.8947,3.8958,3.9019,3.9068,3.912,3.9062,3.9095,3.9141,3.9214,3.9237,3.9285,3.9365,3.9424,3.9414,3.9468,3.9519,3.9492,3.9535,3.953,3.9532,3.9295,3.9266,3.9556,3.9556,3.9556,3.9556,3.9556,3.9556,3.9102,3.9217,3.9204,3.9328,3.9336,3.9417,3.9441,3.9471,3.9489,3.9583,3.9633,3.9628,3.9638,3.9693,3.9745,3.974,3.9763,3.9817,3.9802,3.958,3.9548,3.9518,3.949,3.9822,3.9823,4.0033,4.0035,4.0037]},{"header":{"parameterUnit":"m.s-1","parameterCategory":1,"la1":30.2991,"la2":30.254,"lo1":-89.0895,"lo2":-89.0444,"dy":0.0017,"dx":0.0017,"nx":28,"ny":28,"refTime":"2023-04-06T21:00:00:Z","depth":0,"parameterNumber":3,"parameterNumberName":"V-component_of_WINDS"},"data":[0,0,0,0,0,0,0,0,0,0,0,0,0,0,0,0,0,0,0,0,0,0,0,0,0,0,0,0,0,0,0,0,0,0,0,0,0,0,0,0,0,0,0,0,0,0,0,0,0,0,0,0,0,0,0,0,0,0,0.0724,0.0728,0,0.1129,0.1134,0.1139,0.1182,0.1178,0.1174,0.117,0.1609,0.1624,0.1639,0,0,0,0,0,0,0,0,0,0,0,0,0,0.0012,0.0025,0.0723,0.0728,0.0733,0.1129,0.1134,0.114,0.1183,0.1178,0.1173,0.1168,0.1604,0.1622,0.1641,0,0,0,0,0,0,0,0,0,0,0,0,0,0.036,0.0029,0.0723,0.0802,0.0813,0.1127,0.1134,0.1141,0.1184,0.1178,0.1171,0.1165,0.1598,0.162,0.1643,0.1914,0,0,0.1715,0.1725,0,0,0,0,0,0,0,0,0.034,0.0386,0.0785,0.0797,0.081,0.1098,0.1044,0.1401,0.1185,0.1044,0.117,0.1162,0.1446,0.1481,0.1572,0.1934,0.1953,0.1717,0.1731,0.1741,0.1748,0,0,0,0,0,0,0,0.0316,0.0369,0.0885,0.0791,0.0806,0.0826,0.0868,0.1112,0.1276,0.1056,0.106,0.1106,0.1451,0.1549,0.1582,0.196,0.1716,0.1737,0.1751,0.1761,0.2571,0.2578,0,0,0,0,0,0,0.0274,0.0349,0.0872,0.0897,0.0554,0.0844,0.0891,0.1013,0.1273,0.1306,0.1111,0.1106,0.1512,0.1555,0.1598,0.1935,0.1741,0.1763,0.1776,0.2564,0.2573,0.2581,0,0,0,0,0,0,0.0258,0.032,0.0856,0.0624,0.0694,0.0863,0.0999,0.1024,0.1121,0.1314,0.1346,0.1179,0.1509,0.1565,0.1835,0.1951,0.1773,0.1795,0.2555,0.2567,0.2577,0.2608,0,0,0,0,0,0,0.0237,0.0314,0.0412,0.0625,0.0705,0.1077,0.1005,0.1036,0.1159,0.1157,0.1387,0.1419,0.1508,0.1799,0.1858,0.198,0.1813,0.2546,0.256,0.2574,0.2598,0.2619,0.2637,0,0,0,0,0,0.0212,0.0409,0.0416,0.0479,0.083,0.1084,0.1131,0.1222,0.1167,0.1272,0.1397,0.1412,0.1928,0.1827,0.1893,0.2023,0.2539,0.2556,0.2572,0.2589,0.2615,0.2637,0,0,0,0,0,0,0.0212,0.0438,0.0449,0.0719,0.0881,0.109,0.1224,0.1247,0.1434,0.1425,0.1538,0.159,0.1856,0.1968,0.185,0.2302,0.2229,0.226,0.2219,0.2245,0.2265,0.2234,0.1832,0,0,0,0,0,0.0241,0.042,0.0612,0.0832,0.0912,0.1054,0.1168,0.1224,0.14,0.1471,0.1616,0.1793,0.1995,0.2127,0.2323,0.2614,0.2669,0.2738,0.2757,0.2772,0.2799,0.2966,0.3,0.2637,0.2636,0.2636,0,0,0.0308,0.0454,0.0561,0.0836,0.0968,0.1159,0.1112,0.1315,0.146,0.1505,0.1766,0.1879,0.2085,0.2367,0.2499,0.2468,0.2911,0.2794,0.2805,0.2823,0.2987,0.3021,0.3052,0.2648,0.2646,0.2644,0,0,0.0527,0.0652,0.085,0.0983,0.1181,0.1275,0.1323,0.153,0.1604,0.1867,0.1905,0.2085,0.243,0.2575,0.2695,0.2972,0.2995,0.3034,0.3139,0.3301,0.3329,0.3355,0.3458,0.3493,0.3059,0.306,0.306,0,0.0586,0.0866,0.0952,0.1154,0.1277,0.1319,0.1526,0.1654,0.191,0.1997,0.1957,0.2393,0.2535,0.2853,0.292,0.3015,0.3079,0.3008,0.3317,0.3344,0.337,0.3469,0.3507,0.3063,0.3063,0.3062,0.3062,0,0.0932,0.1127,0.1265,0.1503,0.1642,0.1846,0.1971,0.2103,0.2149,0.2249,0.2521,0.2692,0.2926,0.3006,0.3055,0.3334,0.3309,0.3292,0.3221,0.3406,0.3502,0.354,0.3068,0.3067,0.3066,0.3065,0,0,0.1161,0.1443,0.1492,0.1602,0.1826,0.1983,0.2193,0.2414,0.2527,0.2705,0.2888,0.318,0.3166,0.3301,0.3369,0.351,0.3724,0.3477,0.3484,0.3519,0.4048,0.406,0.4101,0.374,0.3747,0.3753,0.4031,0,0.1406,0.1769,0.1855,0.2172,0.2357,0.2402,0.2586,0.2748,0.2848,0.3027,0.3143,0.3348,0.3312,0.3395,0.3537,0.3667,0.3832,0.3648,0.3919,0.3927,0.3865,0.4151,0.4164,0.4418,0.4069,0.4075,0.408,0,0.174,0.1916,0.2249,0.245,0.2532,0.2694,0.2906,0.3073,0.3262,0.3326,0.3478,0.3531,0.376,0.3677,0.3998,0.3871,0.3988,0.407,0.4082,0.4112,0.4015,0.4192,0.4501,0.4539,0.4139,0.4134,0.413,0,0.1876,0.2199,0.2439,0.2532,0.2773,0.2887,0.2995,0.3175,0.3304,0.3494,0.358,0.3796,0.3915,0.4085,0.4198,0.4126,0.4512,0.4437,0.4578,0.4576,0.4658,0.4652,0.4992,0.473,0.4729,0.4729,0.4728,0,0.2142,0.2345,0.2504,0.2652,0.2883,0.2984,0.3213,0.3323,0.3484,0.3662,0.3717,0.3885,0.4023,0.4212,0.4303,0.4558,0.4612,0.4676,0.4698,0.4671,0.4663,0.475,0.4736,0.4739,0.4737,0.4735,0.4733,0,0.2333,0.2447,0.2713,0.2918,0.2975,0.3137,0.3317,0.3468,0.357,0.3795,0.3854,0.4019,0.4244,0.4373,0.4659,0.4721,0.5005,0.5018,0.4939,0.4949,0.5083,0.5069,0.5493,0.5555,0.5249,0.5252,0.5254,0,0.2495,0.2651,0.2872,0.299,0.3097,0.3289,0.3419,0.3528,0.3663,0.3891,0.4017,0.4243,0.443,0.479,0.4941,0.5161,0.5182,0.5315,0.5216,0.5185,0.5187,0.5177,0.5195,0.5332,0.5335,0.5337,0.5339,0,0.2773,0.2822,0.3002,0.3205,0.3358,0.3525,0.3692,0.3789,0.3927,0.4078,0.4304,0.4449,0.4739,0.4966,0.5199,0.532,0.5356,0.5369,0.5414,0.5389,0.5337,0.5369,0.4987,0.5359,0.5357,0.5356,0.5355,0.5354,0.2957,0.3098,0.3275,0.3478,0.3613,0.3768,0.3919,0.404,0.4228,0.4466,0.4522,0.4763,0.4955,0.527,0.5396,0.5592,0.5569,0.5633,0.565,0.5665,0.567,0.5304,0.5635,0.5635,0.5634,0.5634,0.5634,0,0.3239,0.3355,0.3539,0.3767,0.3928,0.3939,0.4126,0.4263,0.447,0.4642,0.4823,0.5088,0.5309,0.5477,0.5706,0.5831,0.5854,0.5888,0.5881,0.5909,0.5676,0.5615,0.5865,0.5865,0.5865,0.5865,0.5865,0.5865,0.3404,0.3645,0.3716,0.4028,0.4146,0.4375,0.4481,0.4628,0.4765,0.5054,0.5235,0.534,0.5514,0.5756,0.5963,0.6007,0.6091,0.6122,0.617,0.595,0.5925,0.5901,0.5844,0.6139,0.6139,0.6387,0.6389,0.6391]}]]